Location: Lawrenceville
(33.9572°N, 83.9896°W)
Time: 21:16:20
(UTC+00:00)

Envisat - Visible Passes

Search period start: 28 September 2023 00:00
Search period end: 08 October 2023 00:00
Orbit: 763 x 764 km, 98.2° (Epoch: 28 September)

Date Brightness Start Highest point End Pass type
(mag) Time Alt. Az. Time Alt. Az. Time Alt. Az.
28 Sep 2.9 09:19:40 10° N 09:24:32 77° NW 09:24:32 77° NW visible
29 Sep 4.2 08:42:44 10° NNE 08:46:45 39° ENE 08:46:45 39° ENE visible
29 Sep 4.3 10:22:39 10° NNW 10:26:09 19° WNW 10:26:55 18° W visible
30 Sep 5.6 08:06:50 10° NE 08:09:00 16° ENE 08:09:00 16° ENE visible
30 Sep 3.3 09:44:27 10° N 09:49:10 44° WNW 09:49:10 44° WNW visible
01 Oct 3.3 09:07:04 10° NNE 09:11:24 63° NE 09:11:24 63° NE visible
01 Oct 4.9 10:49:25 10° NW 10:50:25 11° WNW 10:51:26 10° WNW visible
02 Oct 4.8 08:30:24 10° NE 08:33:38 28° ENE 08:33:38 28° ENE visible
02 Oct 4.0 10:09:35 10° NNW 10:13:40 25° WNW 10:13:48 25° WNW visible
03 Oct 5.9 07:55:16 10° ENE 07:55:52 11° ENE 07:55:52 11° ENE visible
03 Oct 3.2 09:31:42 10° N 09:36:02 54° NW 09:36:02 54° NW visible
04 Oct 4.0 08:54:32 10° NNE 08:58:15 44° NE 08:58:15 44° NE visible
04 Oct 4.6 10:35:20 10° NNW 10:37:59 14° WNW 10:38:25 14° WNW visible
05 Oct 5.3 08:18:11 10° NE 08:20:29 20° ENE 08:20:29 20° ENE visible
05 Oct 3.7 09:56:38 10° N 10:00:38 32° WNW 10:00:38 32° WNW visible
06 Oct 3.4 09:19:02 10° N 09:22:52 52° N 09:22:52 52° N visible
07 Oct 4.6 08:42:05 10° NNE 08:45:06 31° NE 08:45:06 31° NE visible
07 Oct 4.4 10:22:00 10° NNW 10:25:15 19° WNW 10:25:15 19° WNW visible
